Regional Weather Roundup
Issued by NWS

Home | Current Version | Previous Version | Graphics & Text | Print | Product List | Glossary On
Versions: 1 2 3 4 5 6 7 8 9 10 11 12 13 14 15 16 17 18 19 20 21 22 23 24 25 26 27
000
ASUS45 KBOU 281407
RWRCO

WEATHER ROUNDUP FOR COLORADO
NATIONAL WEATHER SERVICE DENVER/BOULDER CO
800 AM MDT WED JUN 28 2017

NOTE: "FAIR" INDICATES FEW OR NO CLOUDS BELOW 12000 FEET WITH NO
SIGNIFICANT WEATHER AND/OR OBSTRUCTIONS TO VISIBILITY.

COZ001>005-013-030-031-281500-
...NORTHWEST COLORADO...

CITY           SKY/WX    TMP DP  RH WIND       PRES   REMARKS
CRAIG          FAIR      54  40  59 CALM      30.04R
HAYDEN         FAIR      54  36  50 E12       30.05S
MEEKER         FAIR      58  37  45 CALM      30.04S
RABBIT EARS PA FAIR      50  32  50 S5        30.30S
STEAMBOAT SPGS FAIR      51  40  66 W3        30.08S
WALDEN         FAIR      50  36  57 CALM      30.16S
$$

COZ006>008-011-281500-
...WEST CENTRAL VALLEYS...

CITY           SKY/WX    TMP DP  RH WIND       PRES   REMARKS
GRAND JUNCTION FAIR      73  29  19 SE13      29.90R
MONTROSE       FAIR      66  25  21 SE9       29.99F
EAGLE          SUNNY     55  34  44 CALM      30.10R
RIFLE          FAIR      64  35  34 CALM      29.99R
DELTA          FAIR      65  31  27 SE3       29.97R
NUCLA          FAIR      64  19  17 SE9       30.05R
$$

COZ017>023-064>068-281500-
...SOUTHWEST COLORADO...

CITY           SKY/WX    TMP DP  RH WIND       PRES   REMARKS
DURANGO        FAIR      55  25  31 SE3       30.12R
CORTEZ         FAIR      60  32  34 E5        30.05R
PAGOSA SPRINGS FAIR      59  19  21 CALM      30.20R
TELLURIDE      FAIR      60  24  25 CALM      30.27R
WOLF CREEK PAS FAIR      45  10  24 SW9       30.50R
$$

COZ009-010-012-014-032>034-037-058>063-281500-
...CENTRAL COLORADO...

CITY           SKY/WX    TMP DP  RH WIND       PRES   REMARKS
ASPEN          FAIR      58  33  39 N3        30.11R
BUENA VISTA    FAIR      55  26  32 N3        30.19R
COPPER MTN     CLOUDY    54  23  30 S14       30.41S
BERTHOUD PASS  PTSUNNY   43  32  65 W12G21    30.43S
COTTONWOOD PAS FAIR      59  21  23 SE6       30.29R
GUNNISON       FAIR      47  29  49 CALM      30.19
KREMMLING      FAIR      55  43  62 CALM      30.14S
LEADVILLE      FAIR      46  33  60 CALM      30.27R
MONARCH PASS   FAIR      50  12  22 SW6       30.54R
SALIDA         FAIR      56  25  29 CALM      30.23R
SUNLIGHT       FAIR      52  25  35 SW6       30.35R
WILKERSON PASS FAIR      48  28  46 S7        30.40S
$$

COZ069>075-281500-
...SAN LUIS VALLEY/SANGRE DE CRISTO MOUNTAINS...

CITY           SKY/WX    TMP DP  RH WIND       PRES   REMARKS
ALAMOSA        FAIR      58  35  42 SE10      30.15R
DEL NORTE      FAIR      59  19  21 W7        30.17S
LA VETA PASS   FAIR      55  34  44 MISG      30.44S
SAGUACHE       FAIR      54  23  30 W5        30.18R
$$

COZ035-036-038>040-281500-
...NORTHERN COLORADO FRONT RANGE...

CITY           SKY/WX    TMP DP  RH WIND       PRES   REMARKS
DENVER INTL AP PTSUNNY   70  40  33 S10       29.99S
DMNS CITY PARK   N/A     66  43  42 SE9       29.99S
AURORA         PTSUNNY   66  43  42 S8        30.01S
FRONT RANGE AP FAIR      70  41  35 S6        30.01R
ERIE MUNI ARPT FAIR      68  41  36 S6        29.97S
BOULDER MUN AP FAIR      64  43  45 CALM      29.97S
CENTENNIAL     FAIR      67  41  38 SE6       30.02S
BROOMFIELD     FAIR      66  41  39 SW9       30.01S
FORT COLLINS   FAIR      67  45  45 S9        29.97S
LONGMONT       FAIR      70  44  39 CALM      29.98F
$$

COZ041-046-047-076>085-087-088-281500-
...PIKES PEAK/PALMER DIVIDE AND SOUTHERN FOOTHILLS...

CITY           SKY/WX    TMP DP  RH WIND       PRES   REMARKS
COLO. SPRINGS  FAIR      68  41  37 NW5       30.06S
A. F. ACADEMY  FAIR      62  40  43 CALM      30.07R
SCHRIEVER AFB  FAIR      66  37  34 N6        30.06R
CHEYENNE MTN   FAIR      65  36  33 SE9       30.05R
ELLICOTT       FAIR     N/A N/A N/A N7        30.04R
FALCON           N/A     65  35  32 N6        30.11R
FORT CARSON    FAIR      68  41  36 CALM      30.04R
LIMON          FAIR      69  44  40 N9        29.99R
MONUMENT HILL  FAIR      61  39  44 CALM      30.12R
CANON CITY     SUNNY     72  39  30 MISG      30.03R
WALSENBURG     FAIR      72  39  30 CALM      30.08S
TRINIDAD       FAIR      68  42  38 W9        30.05S
$$

COZ042>045-048>051-090-091-281500-
...NORTHEAST COLORADO...

CITY           SKY/WX    TMP DP  RH WIND       PRES   REMARKS
GREELEY ARPT   FAIR      68  47  46 SW3       29.97R
AKRON          FAIR      67  44  43 W10       29.95R
BURLINGTON     FAIR      70  51  51 N15       29.88R
WRAY           FAIR      72  50  46 NW9       29.88R
YUMA           FAIR      68  43  40 NW10      29.91R
STERLING       FAIR      68  48  49 NW3       29.90S
HOLYOKE        NOT AVBL
FORT MORGAN    FAIR      68  41  36 NW13      29.95S
$$

COZ086-089-092>099-281500-
...SOUTHEAST COLORADO...

CITY           SKY/WX    TMP DP  RH WIND       PRES   REMARKS
PUEBLO         FAIR      75  42  30 NW6       29.97R
LA JUNTA       FAIR      72  46  39 W12       29.93R
LAMAR          FAIR      72  50  45 NW10      29.86R
SPRINGFIELD      N/A     73  48  41 NW24G32   29.87R
$$




USA.gov is the U.S. government's official web portal to all federal, state and local government web resources and services.